Location: CCZU
(31.6840°N, 119.9550°E)
Time: 13:04:36
(UTC+08:00)

Hubble Space Telescope - Pass Details

Date: 27 September 2022
Orbit: 530 x 534 km, 28.5° (Epoch: 28 November)

Event Time Altitude Azimuth Distance (km) Brightness Sun altitude
Rises 19:50:57 0° 263° (W) 2,652 5.4 -26.1°
Reaches altitude 10° 19:53:14 10° 259° (W) 1,763 4.2 -26.6°
Enters shadow 19:55:40 33° 242° (WSW) 905 2.2 -27.1°
